Погода в Уеге

Погода в Уеге : погода сейчас, прогноз погоды и архив. Всё, что Вы хотите узнать о погоде в Уеге!

Поиск расширенной информации на нашем сайте:

Другие новости

Новости СМИ2

Главная страница сайта

Новости сайта

03.07.2017

Напоминаем, что на нашем специализированном сайте Метеоцентр.Азия вы можете получить высокодетализированные автоматические прогнозы погоды по пунктам России, СНГ и мира в авиационном формате (включающие направление и скорость ветра, видимость, явления погоды, количество и форму облачности, нижнюю и верхнюю границу облачности).

Рекомендуем: Полезные советы для девушек и женщин http://best-womens.ru

Погода в Уеге - сегодня

Время (UTC), дата Ветер
(°,м/с) 
Видим.   Явления Облачность Т
(°С)
Тd
(°С)
f(%) Тe
(°С)
Pmin
(гПа)
dP
(гПа)
Po
(мм)
O2
(г/м3)
Тmin Tmax R s Состояние
почвы
15 21.09.17 360 (С) 4000 м  слаб. ливневой дождь  10/10 300 м кучево-дожд. 
[Cb cap]
+4.3 +3.8 97 +4  1008.6  -0.4  721  285           
18 21.09.17 360 (С) 20000 м  {ливн. осадки}  10/10 300 м кучево-дожд. 
[Cb cap]
+4.5 +4.1 97 +4  1007.7  -0.8  720  285           
21 21.09.17 350 (С) 4000 м  слаб. ливневой дождь  10/10 300 м кучево-дожд. 
[Cb cap]
+4.5 +4.3 99 +5  1007.5  -0.2  720  285  +3.9       
00 22.09.17 010 (С) 4000 м  слаб. ливневой дождь  10/10 300 м кучево-дожд. 
[Cb cap]
+5.3 +4.4 94 +5  1007.4  720  284           
03 22.09.17 320 (СЗ) 4000 м  слаб. ливневой дождь  10/10 300 м кучево-дожд. 
[Cb cap]
+5.8 +4.9 94 +7  1006.5  -0.7  719  283           
06 22.09.17 020 (С) 20000 м  {ливн. осадки}  10/10 300 м кучево-дожд. 
[Cb cap]
+6.9 +5.1 88 +8  1005.9  -0.4  719  282           
09 22.09.17 050 (СВ) 20000 м  в посл. час ливневой дождь  10/10 600 м кучево-дожд. 
[Cb cap]
+5.3 +4.9 97 +6  1005.9  -0.3  719  283    +7     
12 22.09.17 360 (С) 20000 м  в посл. час морось{ливн. осадки}  10/10 300 м 
[St]
+3.9 +2.9 93 +5  1005.5  -0.6  718  285           
15 22.09.17 130 (ЮВ) 20000 м    10/10 300 м 
[St]
+2.1 +0.9 92 +3  1004.6  -1.1  717  287           
18 22.09.17 110 (В) 20000 м  в посл. час ливневой дождь  10/10 300 м кучево-дожд. 
[Cb cap]
+0.6 +0.6 100 +1  1004.9  717  288           
21 22.09.17 140 (ЮВ) 4000 м  слаб. ливневой снег  10/10 300 м кучево-дожд. 
[Cb cap]
+0.7 +0.3 97 1006.5  1.6  719  289  +0.4       
00 23.09.17 110 (В) 20000 м  {ливн. осадки}  9/9 300 м кучево-дожд. 
[Cb cap]
+3.2 +1.7 90 +4  1008  1.9  720  286           
03 23.09.17 140 (ЮВ) 20000 м    3/3 1000 м 
[Sc]
+7.6 +1.9 67 +8  1008.7  1.4  721  282           
06 23.09.17 040 (СВ) 20000 м    6/6 600 м кучево-дожд. 
[Cb cap]
+10.9 +2.3 55 +12  1008.9  0.7  722  279           
09 23.09.17 310 (СЗ) 20000 м    3/3 1000 м 
[Sc]
+2.9 +1.3 89 +4  1011.6  1.3  722  288    +11.5  0.3     
12 23.09.17 310 (СЗ) 20000 м    1/1 1000 м 
[Sc]
+0.7 +0.6 99 1013.7  1.6  724  291           
15 23.09.17 320 (СЗ) 20000 м    1/1 1000 м 
[Sc]
-1.3 -1.3 100 -1  1014.8  0.7  724  293           
18 23.09.17 100 (В) 23  20000 м    3/0 верхняя 
[Ci fib]
-2.3 -2.3 100 -10  1015.3  0.3  724  295           
21 23.09.17 330 (СЗ) 20000 м    1/1 1000 м 
[Sc]
-2.7 -2.7 100 -4  1015.9  0.5  725  295  -3.4         
00 24.09.17 030 (СВ) 20000 м    ясно 
+7.8 +1.3 63 +8  1014  725  284           
03 24.09.17 330 (СЗ) 20000 м    1/1 1000 м 
[Sc]
+13.7 +1 42 +14  1011.3  -1.6  724  277           
06 24.09.17 160 (Ю) 20000 м    9/9 600 м кучево-дожд. 
[Cb cap]
+13.8 +1.6 43 +15  1010.5  -0.7  723  277           
09 24.09.17 040 (СВ) 20000 м    9/9 600 м кучево-дожд. 
[Cb cap]
+11.4 +2 52 +12  1012  724  280    +14.7       
12 24.09.17 280 (З) 20000 м    8/8 600 м кучево-дожд. 
[Cb cap]
+5.5 +1.8 77 +6  1014.1  725  286           
15 24.09.17 360 (С) 20000 м    6/6 600 м кучево-дожд. 
[Cb cap]
+7 +0.9 65 +7  1014.1  0.3  725  285           
Время (UTC), дата Ветер
(°,м/с) 
Видим.   Явления Облачность Т
(°С)
Тd
(°С)
f(%) Тe
(°С)
Pmin
(гПа)
dP
(гПа)
Po
(мм)
O2
(г/м3)
Тmin Tmax R s Состояние
почвы

Для получения пояснительной информации подведите курсор к названию столбца.

ПОГОДА в Уеге - архив

Всё, что Вы хотите узнать о погоде в Уеге - удобно и подробно!

Выберите нужную дату (начиная с 1 января 2015* года) и нажмите кнопку "Найти".
Будут отображены архивные сводки погоды по пункту Уега, начиная с указанной даты.


Отображать данные в формате CSV (для использования в таблицах Excel)


Внимание! Наш архив погоды предназначен исключительно для личного некоммерческого использования в познавательных целях. Если Вам необходимы официальные справки о состоянии погоды (для производственных, юридических, коммерческих и т.п. целей), обращайтесь в органы Росгидромета.

*Примечание: данная дата относится к архиву по метеостанциям СССР (Россия, СНГ, Балтия).
Архив по метеостанциям Зарубежной Европы и Азии (кроме Китая) хранится 10 дней, по другим регионам земного шара (Китай, Африка, Америка, Австралия, Океания) - 1 день.

Уега - район местоположения метеостанции


Название, широта, долгота, высота метеостанции:
Уега 60.7°ш. 142.8°д. 398 м над ур. моря [Российская Федерация]

Дополнительная информация

В oтличие oт бoльшинства пoгoдных сайтoв мы публикуем пoдрoбную метеoинфoрмацию в детальнoм прoфессиoнальнoм фoрмате.

Характеристики температуры и влажнoсти вoздуха измеряются на высoте 2 м в тени вдали oт зданий и деревьев.
Скoрoсть ветра измеряется на высoте 10 м (на урoвне рoста челoвека скoрoсть ветра ниже в 1.5-2 раза). Если метеoстанция нахoдится в гoрoде или в лесу, тo скoрoсть ветра занижена на 2-4 м/с пo сравнению с oткрытым местoм. Скoрoсть ветра над акватoриями крупных рек и oзёр, а также на вершинах хoлмoв на 2-5 м/с выше, чем в oбычных услoвиях.
Атмoсфернoе давление в разных тoчках местнoсти мoжет значительнo oтличаться oт давления на метеoстанции, в зависимoсти oт услoвий рельефа (при пoдъёме на 10 м давление пoнижается примернo на 1 мм рт.ст.).